Other Surface Observations
Issued by NWS Tucson, AZ

Home | Current Version | Previous Version | Text Only | Print | Product List | Glossary On
Versions: 1 2 3 4 5 6 7 8 9 10 11 12 13 14 15 16 17 18 19 20 21 22 23 24 25 26 27 28 29 30 31 32 33 34 35 36 37 38 39 40 41 42 43 44 45 46 47 48 49 50
000
SXUS55 KTWC 230716
OSOTWC

WEATHER ROUNDUP FOR SOUTHEAST ARIZONA
NATIONAL WEATHER SERVICE TUCSON AZ
1215 AM MST WED JUL 23 2014

AZZ504>506-514-230815-
LOCATION       SKY/WX    TMP DP  RH WIND       PRES   REMARKS
TUCSON         CLOUDY    98  47  17 SE15G22   30.04R
DAVIS-MONTHAN  MOCLDY    95  53  24 E16       30.03R
CHILDRENS PARK N/A       94  49  22 NW3               PIMA CO DEQ
ALVERNON/22ND  N/A      N/A N/A N/A N/A               PIMA CO DEQ
CHERRY/GLENN   N/A      N/A N/A N/A N/A               PIMA CO DEQ
TANGERINE      N/A       94 N/A N/A NE6               PIMA CO DEQ
CONTL RANCH    N/A       95  49  21 SE2               PIMA CO DEQ
GRANT/1ST      N/A       97  48  19 NW3               PIMA CO DEQ
CRAYCROFT/22ND N/A      N/A N/A N/A N/A               PIMA CO DEQ
GOLFLINKS/KOLB N/A      N/A N/A N/A N/A               PIMA CO DEQ
AJO/12TH       N/A       97  43  16 NW2               PIMA CO DEQ
SAGUARO EAST   N/A      N/A N/A N/A N/A               PIMA CO DEQ
FAIRGROUNDS    N/A       94 N/A N/A S3                PIMA CO DEQ
SAGUARO        N/A       96  44  17 NE4               *SABINO CYN
SAN CARLOS     N/A       91  52  27 NE3               *SAN CARLOS
GREEN VALLEY   N/A       92  51  25 SW0               PIMA CO DEQ
HORSE CAMP CYN N/A       89  49  25 E15G21            *ARAVAIPA CYN
RINCON MTNS    N/A       64  53  67 E10G21            *NR MANNING CAMP
$$

AZZ509>511-230815-
LOCATION       SKY/WX    TMP DP  RH WIND       PRES   REMARKS
SAFFORD        MOCLDY    86  58  38 S14       30.16S
STRAY HORSE    N/A       67  48  50 NE4G16            *
TRAIL CABIN    N/A       73  51  46 E9G14             *N OF GRANVILLE
BLACK HILLS    N/A       85  57  38 SE19G31           *N OF FT THOMAS
DRY LAKE       N/A       67  49  52 E7G17             *NATANES MTNS
NOON CREEK     N/A       74  59  59 SW4G14            *PINALENO MTNS
COLUMBINE      N/A       59  46  62 CALM              *PINALENO MTNS
GUTHRIE        N/A       71  54  54 E7G19             *SW OF GUTHRIE
$$

AZZ502-503-513-230815-
LOCATION       SKY/WX    TMP DP  RH WIND       PRES   REMARKS
NOGALES        CLOUDY    84  55  36 N5        30.15S
SELLS          N/A       94  47  20 SW6G10            *
SASABE         N/A       88  49  26 N3                *ALTAR VLY
HOPKINS        N/A       74  47  39 E8G25             *SANTA RITA MTNS
CARR CYN       N/A       73  57  58 E8G18             *W OF HEREFORD
$$

AZZ507-508-512-230815-
LOCATION       SKY/WX    TMP DP  RH WIND       PRES   REMARKS
SIERRA VISTA   PTCLDY    73  63  68 SE13      30.27F
DOUGLAS        CLOUDY    76  60  57 E20       30.26S
EMPIRE MTNS    N/A       77  56  49 SE12G29           *LAS CIENEGAS NCA
MULESHOE RANCH N/A       82  53  37 SE9G29            *PRESERVE
HEADQUARTERS   N/A       76  54  46 NE9G15            *CHIRICAHUA MTNS
$$

.............................NOTES.............................
THIS IS AN AUTOMATED COLLECTIVE WITH MINIMAL QUALITY CONTROL.
PIMA CO DEQ SITES HAVE NONSTANDARD WIND SENSOR HEIGHTS.
PIMA CO DEQ SITES DO NOT REPORT WIND GUSTS.
* INDICATES WIND SENSORS LOCATED AT 20 FEET INSTEAD OF 33 FEET.
..............................KEY..............................
SKY/WX - SKY CONDITION/WEATHER
TMP    - TEMPERATURE IN FAHRENHEIT
DP     - DEWPOINT IN FAHRENHEIT
RH     - RELATIVE HUMIDITY IN PERCENT
WIND   - DIRECTION AND SPEED IN MILES PER HOUR (MPH)
VRB    - VARIABLE WIND DIRECTION
PRES   - MEAN SEA LEVEL PRESSURE IN INCHES OF MERCURY
         F - FALLING PRESSURE   R - RISING PRESSURE
         S - STEADY PRESSURE
VSB    - VISIBILITY IN MILES
HX     - HEAT INDEX IN FAHRENHEIT
WCI    - WIND CHILL INDEX IN FAHRENHEIT
N/A    - NOT AVAILABLE
AFB    - AIR FORCE BASE
         DAVIS-MONTHAN IS DAVIS-MONTHAN AIR FORCE BASE
CYN    - CANYON
MTNS   - MOUNTAINS
NCA    - NATIONAL CONSERVATION AREA
NR     - NEAR
VLY    - VALLEY
CONTL  - CONTINENTAL
PIMA CO DEQ - PIMA COUNTY DEPT OF ENVIRONMENTAL QUALITY



USA.gov is the U.S. government's official web portal to all federal, state and local government web resources and services.